Starlink 3131

operational
NORAD ID: 49427 Int'l Des: 2021-104 Owner: SPXS Country: US Constellation: starlink
LEOCIRCULAR

About Starlink 3131

Description loading...

Live Position

Loading 3D Globe...

Upcoming Passes

Altitude History

Altitude vs Time

uPlot chart will show altitude changes over time

Two-Line Element Set

1 49427U 21104V 25304.76922584 -.00000222 00000-0 41509-5 0 9992
2 49427 53.2166 87.8758 0001312 87.1207 272.9935 15.08837666219173
Epoch: Oct 31, 2025 • Age: 20 hours

Current Status

Altitude 555.8 km
Velocity 7.58 km/s
Sub-Earth Point -45.12°S, 131.79°E
Launch Date Nov 13, 2021
Age 3.9 years
Type internet

Technical Details

Classification Payload
Mass 290.00 kg
Dry Mass 270.00 kg
Total Mass 290.00 kg
Length 0.20 m
Diameter 2.80 m
Span 9.00 m
Shape Box + pan
Manufacturer SPXS
Bus Type Starlink
Phase Status In Orbit
Owner/State SPXS/US

Large Constellations

Loading constellations...